Location: General Nathan Twining Observatory
(34.5931°N, 106.8201°W)
Time: 02:11:58
(UTC-06:00)

ADEOS II - Visible Passes

Search period start: 01 November 2014 00:00
Search period end: 10 November 2014 23:00
Orbit: 802 x 802 km, 98.3° (Epoch: 31 October)

Date Brightness Start Highest point End Pass type
(mag) Time Alt. Az. Time Alt. Az. Time Alt. Az.
01 Nov 2.4 06:57:19 10° NNE 07:02:35 74° ESE 07:07:49 10° S visible
02 Nov 3.6 05:31:35 10° NNE 05:36:31 40° E 05:41:25 10° SSE visible
02 Nov 5.0 18:28:47 10° SW 18:32:29 19° W 18:36:12 10° NW visible
03 Nov 4.7 05:06:19 10° NE 05:10:22 22° E 05:14:23 10° SE visible
03 Nov 3.9 18:01:33 10° SSW 18:06:18 35° W 18:11:05 10° NNW visible
04 Nov 5.5 04:42:15 10° ENE 04:44:06 12° E 04:45:57 10° ESE visible
04 Nov 2.7 17:35:01 10° S 17:40:12 64° W 17:45:26 10° NNW visible
05 Nov 2.6 05:53:01 10° NNE 05:58:16 68° ESE 06:03:28 10° S visible
05 Nov 5.5 18:53:00 10° WSW 18:54:24 11° W 18:55:48 10° WNW visible
06 Nov 3.8 05:27:20 10° NNE 05:32:11 37° E 05:36:59 10° SSE visible
06 Nov 4.8 18:24:13 10° SW 18:28:07 21° W 18:32:03 10° NW visible
07 Nov 4.8 05:02:09 10° NE 05:06:00 20° E 05:09:50 10° SE visible
07 Nov 3.8 17:57:06 10° SSW 18:01:57 38° W 18:06:50 10° NNW visible
08 Nov 5.5 04:38:40 10° E 04:39:43 11° E 04:40:47 10° ESE visible
08 Nov 2.5 17:30:39 10° S 17:35:52 70° WSW 17:41:07 10° NNW visible
09 Nov 2.7 05:48:42 10° NNE 05:53:55 62° E 05:59:06 10° S visible
09 Nov 5.4 18:47:58 10° WSW 18:50:01 12° W 18:52:04 10° WNW visible
10 Nov 3.9 05:23:04 10° NNE 05:27:49 34° E 05:32:32 10° SSE visible
10 Nov 4.7 18:19:40 10° SSW 18:23:45 23° W 18:27:52 10° NW visible
